TimeEEST,TemperatureF,Dew PointF,Humidity,Sea Level PressureIn,VisibilityMPH,Wind Direction,Wind SpeedMPH,Gust SpeedMPH,PrecipitationIn,Events,Conditions,WindDirDegrees,DateUTC
12:20 AM,48.2,30.2,50,29.83,-9999.0,Variable,1.2,-,N/A,,Clear,0,2013-09-16 21:20:00
12:50 AM,50.0,28.4,43,29.83,-9999.0,North,4.6,-,N/A,,Clear,10,2013-09-16 21:50:00
1:20 AM,48.2,30.2,50,29.83,-9999.0,NNE,4.6,-,N/A,,Clear,20,2013-09-16 22:20:00
1:50 AM,48.2,30.2,50,29.80,-9999.0,Calm,Calm,-,N/A,,Clear,0,2013-09-16 22:50:00
2:20 AM,46.4,30.2,53,29.80,-9999.0,Calm,Calm,-,N/A,,Clear,0,2013-09-16 23:20:00
2:50 AM,46.4,32.0,57,29.80,-9999.0,Calm,Calm,-,N/A,,Clear,0,2013-09-16 23:50:00
3:20 AM,44.6,32.0,61,29.80,-9999.0,Calm,Calm,-,N/A,,Clear,0,2013-09-17 00:20:00
3:50 AM,46.4,33.8,62,29.80,-9999.0,NE,2.3,-,N/A,,Clear,40,2013-09-17 00:50:00
4:20 AM,46.4,33.8,62,29.77,-9999.0,NE,1.2,-,N/A,,Clear,50,2013-09-17 01:20:00
4:50 AM,44.6,32.0,61,29.77,-9999.0,Calm,Calm,-,N/A,,Clear,0,2013-09-17 01:50:00
5:20 AM,42.8,32.0,66,29.77,-9999.0,Calm,Calm,-,N/A,,Clear,0,2013-09-17 02:20:00
5:50 AM,42.8,32.0,66,29.77,-9999.0,Calm,Calm,-,N/A,,Clear,0,2013-09-17 02:50:00
6:20 AM,44.6,32.0,61,29.77,6.2,Calm,Calm,-,N/A,,Partly Cloudy,0,2013-09-17 03:20:00
6:50 AM,42.8,35.6,76,29.77,6.2,Calm,Calm,-,N/A,,Scattered Clouds,0,2013-09-17 03:50:00
7:20 AM,51.8,35.6,54,29.77,6.2,Calm,Calm,-,N/A,,Mostly Cloudy,0,2013-09-17 04:20:00
7:50 AM,55.4,35.6,47,29.77,6.2,Calm,Calm,-,N/A,,Mostly Cloudy,0,2013-09-17 04:50:00
8:20 AM,57.2,35.6,44,29.80,6.2,Calm,Calm,-,N/A,,Mostly Cloudy,0,2013-09-17 05:20:00
8:50 AM,59.0,39.2,48,29.80,6.2,Variable,1.2,-,N/A,,Mostly Cloudy,0,2013-09-17 05:50:00
9:00 AM,59,38,35,,12,ESE,1.2,,,,Partly Cloudy,120,2013-09-17 06:00:00
9:20 AM,60.8,39.2,45,29.80,6.2,Calm,Calm,-,N/A,,Mostly Cloudy,0,2013-09-17 06:20:00
9:50 AM,64.4,44.6,49,29.80,6.2,SSE,4.6,-,N/A,,Mostly Cloudy,160,2013-09-17 06:50:00
10:20 AM,66.2,44.6,46,29.80,6.2,WNW,18.4,-,N/A,,Mostly Cloudy,290,2013-09-17 07:20:00
10:29 AM,64.4,44.6,49,29.83,6.2,WNW,12.7,-,N/A,Rain,Light Rain Showers,290,2013-09-17 07:29:00
10:41 AM,62.6,46.4,55,29.83,6.2,West,11.5,-,N/A,,Mostly Cloudy,280,2013-09-17 07:41:00
10:50 AM,64.4,46.4,52,29.83,6.2,West,6.9,-,N/A,,Mostly Cloudy,260,2013-09-17 07:50:00
11:04 AM,64.4,46.4,52,29.83,6.2,SSW,6.9,-,N/A,Rain,Light Rain Showers,200,2013-09-17 08:04:00
11:20 AM,62.6,51.8,68,29.83,6.2,SW,5.8,-,N/A,Rain,Light Rain Showers,220,2013-09-17 08:20:00
11:50 AM,62.6,48.2,59,29.83,6.2,WSW,5.8,-,N/A,,Mostly Cloudy,250,2013-09-17 08:50:00
12:20 PM,64.4,46.4,52,29.83,6.2,West,6.9,-,N/A,,Mostly Cloudy,260,2013-09-17 09:20:00
12:30 PM,64.4,46.4,52,29.83,6.2,West,5.8,-,N/A,Rain,Light Rain Showers,270,2013-09-17 09:30:00
12:50 PM,64.4,46.4,52,29.83,6.2,Variable,3.5,-,N/A,,Mostly Cloudy,0,2013-09-17 09:50:00
1:20 PM,66.2,48.2,52,29.83,6.2,SW,5.8,-,N/A,,Mostly Cloudy,220,2013-09-17 10:20:00
1:50 PM,68.0,44.6,43,29.80,6.2,Variable,4.6,-,N/A,,Scattered Clouds,0,2013-09-17 10:50:00
2:20 PM,71.6,41.0,33,29.80,6.2,West,11.5,-,N/A,,Scattered Clouds,280,2013-09-17 11:20:00
2:50 PM,71.6,41.0,33,29.80,6.2,WNW,6.9,-,N/A,,Scattered Clouds,290,2013-09-17 11:50:00
3:00 PM,71,40,22,,12,WNW,6.9,,,,Partly Cloudy,290,2013-09-17 12:00:00
3:20 PM,71.6,41.0,33,29.80,6.2,WSW,6.9,-,N/A,,Mostly Cloudy,240,2013-09-17 12:20:00
3:50 PM,71.6,41.0,33,29.80,6.2,WNW,5.8,-,N/A,,Mostly Cloudy,290,2013-09-17 12:50:00
4:20 PM,71.6,41.0,33,29.77,6.2,West,6.9,-,N/A,,Mostly Cloudy,270,2013-09-17 13:20:00
4:50 PM,71.6,41.0,33,29.77,6.2,West,10.4,-,N/A,,Mostly Cloudy,270,2013-09-17 13:50:00
5:20 PM,71.6,39.2,31,29.77,6.2,West,9.2,-,N/A,,Mostly Cloudy,270,2013-09-17 14:20:00
5:50 PM,71.6,39.2,31,29.77,6.2,WSW,5.8,-,N/A,,Mostly Cloudy,250,2013-09-17 14:50:00
6:20 PM,68.0,42.8,40,29.77,6.2,SW,3.5,-,N/A,,Mostly Cloudy,220,2013-09-17 15:20:00
6:50 PM,64.4,41.0,42,29.77,6.2,Calm,Calm,-,N/A,,Mostly Cloudy,0,2013-09-17 15:50:00
7:20 PM,60.8,44.6,55,29.80,6.2,Calm,Calm,-,N/A,,Mostly Cloudy,0,2013-09-17 16:20:00
7:50 PM,62.6,46.4,55,29.80,6.2,Calm,Calm,-,N/A,,Mostly Cloudy,0,2013-09-17 16:50:00
8:20 PM,62.6,44.6,52,29.80,6.2,Calm,Calm,-,N/A,,Mostly Cloudy,0,2013-09-17 17:20:00
8:50 PM,64.4,42.8,45,29.80,6.2,Calm,Calm,-,N/A,,Mostly Cloudy,0,2013-09-17 17:50:00
9:00 PM,64,43,35,,12,Calm,Calm,,,,Partly Cloudy,,2013-09-17 18:00:00
9:20 PM,60.8,46.4,59,29.83,6.2,Calm,Calm,-,N/A,,Mostly Cloudy,0,2013-09-17 18:20:00
9:50 PM,60.8,46.4,59,29.80,6.2,Calm,Calm,-,N/A,,Mostly Cloudy,0,2013-09-17 18:50:00
10:20 PM,59.0,48.2,67,29.80,6.2,Calm,Calm,-,N/A,,Mostly Cloudy,0,2013-09-17 19:20:00
10:50 PM,60.8,46.4,59,29.80,6.2,Calm,Calm,-,N/A,,Mostly Cloudy,0,2013-09-17 19:50:00
11:20 PM,57.2,44.6,63,29.80,6.2,NNE,2.3,-,N/A,,Mostly Cloudy,30,2013-09-17 20:20:00
11:50 PM,57.2,44.6,63,29.80,6.2,Calm,Calm,-,N/A,,Mostly Cloudy,0,2013-09-17 20:50:00